Weather in Pronkino

Russia / Orenburg Oblast     52°42′19″N   52°54′27″E
temp.,
°C
wind,
m/s
gust,
m/s
humid.,
%
clouds,
%
prec.,
mm/h
press.,
hPa
HPBL,
m
18 may, tue
tue1823:00+22sse22340 0.0 101711
02:00+20wsw11360 0.0 101711
05:00+18nne11400 0.0 101711
08:00+22ne11400 0.0 101760
11:00+28nne22300 0.0 1017521
14:00+30n22200 0.0 10162985
17:00+30n22205 0.0 10153215
20:00+27n22346 0.0 101512
19 may, wed
wed1923:00+21ne61351100 0.0 1015334
02:00+18ne411645 0.1 1015242
05:00+17ene410730 0.1 1015194
08:00+19ene58670 0.0 1016302
11:00+23e79520 0.0 1016903
14:00+26ese78420 0.0 10161851
17:00+26ese78400 0.0 10162004
20:00+23e610530 0.0 1017411
20 may, thu
thu2023:00+19ese614560 0.0 1018373
02:00+17ese6155735 0.0 1018388
05:00+15ese615545 0.0 1019391
08:00+17ese613560 0.0 1020496
11:00+21se89420 0.0 10201252
14:00+23se893439 0.0 10191841
17:00+24se793240 0.0 10182146
20:00+20se510450 0.0 1018368
21 may, fri
fri2123:00+16ese514535 0.0 1018305
02:00+16se61450100 0.0 1017369
05:00+16se31051100 0.0 1017239
08:00+15se366099 0.0 1018184
11:00+20se345234 0.1 1018740
14:00+23ssw344711 0.0 10181713
17:00+22sw2457100 0.0 1019136
20:00+22s22575 0.0 101928
22 may, sat
sat2223:00+20wsw245673 0.0 102066
02:00+16nw226697 0.0 102114
05:00+16nw116698 0.0 102311
08:00+19n115779 0.0 1024115
11:00+24ene114168 0.0 10231046
14:00+27ese223456 0.0 10231592
17:00+28sse123195 0.0 10221917
20:00+26se11435 0.0 102211